Regional Weather Roundup
Issued by NWS

Home | Current Version | Previous Version | Graphics & Text | Print | Product List | Glossary On
Versions: 1 2 3 4 5 6 7 8 9 10 11 12 13 14 15 16 17 18 19 20 21 22 23 24 25 26 27 28 29 30 31 32 33 34 35 36 37 38 39 40 41 42 43 44 45 46 47 48 49 50
223
ASUS44 KMEG 040700
RWRTN
TENNESSEE HOURLY STATE WEATHER ROUNDUP
NATIONAL WEATHER SERVICE MEMPHIS TN
200 AM CDT WED MAY 04 2016

TNZ002-004-019-021-049-052-054-088>092-040800-
WEST TENNESSEE

CITY           SKY/WX    TMP DP  RH WIND       PRES   REMARKS
MEMPHIS INTL   CLEAR     53  49  86 W3        29.95F
NWS MEMPHIS      N/A     50 N/A N/A MISG        N/A
JACKSON        PTCLDY    50  47  89 SW3       29.93F
DYERSBURG      CLEAR     50  46  87 CALM      29.92F
UNION CITY     CLEAR     48  48 100 SW3       29.90F
LEXINGTON      MOCLDY    48  48 100 CALM      29.91F VSB 1/2
$$

TNZ008-025-027-028-033-062-065-066-040800-
NORTH MIDDLE TENNESSEE

CITY           SKY/WX    TMP DP  RH WIND       PRES   REMARKS
NASHVILLE      CLEAR     52  46  80 NW5       29.90F
CLARKSVILLE    CLEAR     49  46  90 W3        29.89F
COOKEVILLE     CLEAR     46  45  93 CALM      29.87S
CROSSVILLE     PTCLDY    49  44  83 W5        29.88F
$$

TNZ061-075-076-078-094-096-097-040800-
SOUTH MIDDLE TENNESSEE

CITY           SKY/WX    TMP DP  RH WIND       PRES   REMARKS
TULLAHOMA      CLEAR     48  48 100 NW5       29.90F
WINCHESTER     CLEAR     48  46  93 CALM      29.90F
MCMINNVILLE    CLEAR     48  48 100 CALM      29.88F
COLUMBIA       CLEAR    N/A N/A N/A CALM      29.89F
SHELBYVILLE    CLEAR     48  48 100 CALM      29.91F
$$

TNZ017-018-042-046-047-040800-
NORTHEAST TENNESSEE

CITY           SKY/WX    TMP DP  RH WIND       PRES   REMARKS
TRI CITIES     CLOUDY    56  46  69 W7        29.81F
$$

TNZ012-013-036-069-073-074-040800-
CENTRAL EAST TENNESSEE

CITY           SKY/WX    TMP DP  RH WIND       PRES   REMARKS
KNOXVILLE      CLOUDY    58  49  72 W6        29.84
OAK RIDGE      CLOUDY    57  46  66 CALM      29.85F
GATLINBURG     CLOUDY    55  46  71 CALM      29.83F
$$

TNZ083-085-099-040800-
SOUTHEAST TENNESSEE

CITY           SKY/WX    TMP DP  RH WIND       PRES   REMARKS
CHATTANOOGA    PTCLDY    56  46  69 W3        29.87F
$$

SKY/WX REPORTED AS FAIR MEANS FEW OR NO CLOUDS BELOW
12 THOUSAND FEET.





USA.gov is the U.S. government's official web portal to all federal, state and local government web resources and services.